DW4862 Weather Reports


time (UTC)temp
C
wind
direction
speed
KPH
gust
KPH
rain 1hr
cm
rain 24hr
cm
rain mn
cm
humidity
%
barometer
mb
20260504081530 13 222 0.0 4.8 0.05 0.05 0.05 85 1011.2
20260504050003 16 211 0.0 8.0 0.00 0.00 0.00 57 1010.5
20260504044600 15 211 0.0 4.8 0.00 0.00 0.00 58 1010.6
20260504043104 15 211 1.6 4.8 0.00 0.00 0.00 57 1010.8
20260504041557 16 211 0.0 4.8 0.00 0.00 0.00 57 1011.0
20260504040131 16 211 1.6 9.7 0.00 0.00 0.00 56 1011.1
20260504034601 16 212 1.6 6.4 0.00 0.00 0.00 56 1011.2
20260504033056 16 211 1.6 9.7 0.00 0.00 0.00 55 1011.5
20260504031601 16 200 1.6 9.7 0.00 0.00 0.00 55 1011.3
20260504030053 16 211 1.6 6.4 0.00 0.00 0.00 56 1011.4
20260504024551 15 210 0.0 3.2 0.00 0.00 0.00 59 1011.6
20260504023050 15 210 0.0 3.2 0.00 0.00 0.00 59 1011.7
20260504021549 15 210 0.0 0.0 0.00 0.00 0.00 61 1011.8
20260504014546 16 210 0.0 0.0 0.00 0.00 0.00 56 1011.6
20260504013046 16 210 0.0 4.8 0.00 0.00 0.00 53 1011.8
20260504011545 17 208 0.0 4.8 0.00 0.00 0.00 51 1011.7
20260504010048 17 214 1.6 4.8 0.00 0.00 0.00 49 1011.7
20260504004543 17 211 1.6 6.4 0.00 0.00 0.00 49 1011.9
20260504003043 18 211 0.0 4.8 0.00 0.00 0.00 48 1012.0
20260504001550 18 212 0.0 4.8 0.00 0.00 0.00 46 1012.1
20260504000041 19 214 1.6 6.4 0.00 0.00 0.00 45 1012.0
20260503234600 18 221 3.2 9.7 0.00 0.00 0.00 44 1012.1
20260503233045 18 215 3.2 9.7 0.00 0.00 0.00 45 1012.0
20260503231537 19 208 4.8 17.7 0.00 0.00 0.00 44 1011.7
20260503230035 20 217 3.2 11.3 0.00 0.00 0.00 45 1011.7
20260503224534 20 212 4.8 17.7 0.00 0.00 0.00 43 1011.8
20260503223033 20 211 4.8 12.9 0.00 0.00 0.00 43 1012.0
20260503221535 20 207 1.6 8.0 0.00 0.00 0.00 45 1012.2
20260503220028 20 205 4.8 16.1 0.00 0.00 0.00 43 1012.6
20260503214527 20 219 6.4 16.1 0.00 0.00 0.00 44 1012.9
20260503213024 20 217 3.2 16.1 0.00 0.00 0.00 45 1013.0
20260503211523 20 204 6.4 0.0 0.00 0.00 0.00 45 1013.3
20260503210020 20 221 4.8 14.5 0.00 0.00 0.00 46 1013.8
20260503204523 20 208 4.8 14.5 0.00 0.00 0.00 45 1014.2
20260503203016 19 211 4.8 16.1 0.00 0.00 0.00 46 1014.6
20260503201512 19 207 4.8 12.9 0.00 0.00 0.00 45 1015.1
20260503200009 19 201 4.8 16.1 0.00 0.00 0.00 49 1015.3
20260503194508 19 213 3.2 11.3 0.00 0.00 0.00 48 1015.8
20260503193005 18 217 3.2 11.3 0.00 0.00 0.00 49 1015.7
20260503191503 18 217 8.0 16.1 0.00 0.00 0.00 50 1016.4
20260503190103 18 242 1.6 16.1 0.00 0.00 0.00 48 1016.7
20260503184559 18 213 1.6 9.7 0.00 0.00 0.00 53 1017.0
20260503183057 18 204 4.8 12.9 0.00 0.00 0.00 49 1017.4
20260503181554 18 187 6.4 14.5 0.00 0.00 0.00 47 1017.6
20260503180059 18 215 3.2 11.3 0.00 0.00 0.00 46 1018.1
20260503174547 17 215 4.8 11.3 0.00 0.00 0.00 49 1018.5
20260503173044 16 208 1.6 12.9 0.00 0.00 0.00 52 1018.7
20260503171546 16 208 3.2 11.3 0.00 0.00 0.00 51 1019.1